Regional Weather Roundup
Issued by NWS Green Bay, WI

Home | Current Version | Previous Version | Graphics & Text | Print | Product List | Glossary Off
Versions: 1 2 3 4 5 6 7 8 9 10 11 12 13 14 15 16 17 18 19 20 21 22 23 24 25 26 27 28 29 30 31 32 33 34 35 36 37 38 39 40 41 42 43 44 45 46 47 48 49 50

000
ASUS43 KGRB 210910
RWRGRB

NORTH-CENTRAL AND NORTHEAST WISCONSIN REGIONAL WEATHER ROUNDUP
NATIONAL WEATHER SERVICE GREEN BAY WI
300 AM CST SUN DEC 21 2014

WIZ005-009-010>012-018-019-211000-
NORTH CENTRAL WISCONSIN

CITY           SKY/WX    TMP DP  RH WIND       PRES   REMARKS
IRONWOOD       CLOUDY    30  27  86 S7        30.03F
MANITOWISH WTR CLOUDY    27  27 100 S7        30.05F FOG
ARBOR VITAE    CLOUDY    29  28  93 S5        30.06F FOG
EAGLE RIVER    CLOUDY    26  26  99 S5        30.07F FOG
LAND O LAKES   CLOUDY    28  26  96 S5        30.07F FOG
RHINELANDER    CLOUDY    26  24  92 S6        30.09F FOG
PHILLIPS       CLOUDY    28  26  94 S7        30.06F FOG
ANTIGO         CLOUDY    26  26 100 S8        30.11F FOG
TOMAHAWK       CLOUDY    27  26  94 CALM      30.09F FOG
MERRILL        CLOUDY    28  27  96 S3        30.11S FOG
$$

WIZ013-073-211000-
NORTHEAST WISCONSIN

CITY           SKY/WX    TMP DP  RH WIND       PRES   REMARKS
IRON MOUNTAIN  CLOUDY    26  23  88 SE6       30.13F FOG
MARINETTE      CLOUDY    28  25  86 S3        30.19F
OCONTO         CLOUDY    29  28  94 CALM      30.19F
$$

WIZ017-030-035>037-045-211000-
CENTRAL WISCONSIN

CITY           SKY/WX    TMP DP  RH WIND       PRES   REMARKS
MEDFORD        CLOUDY    28  27  96 S8        30.08F FOG
WAUSAU         CLOUDY    28  26  92 S6        30.11F FOG
MOSINEE        CLOUDY    28  28 100 SE6       30.13F FOG
MARSHFIELD     CLOUDY    29  26  89 S6        30.11F FOG
WISC RAPIDS    CLOUDY    29  25  85 S3        30.15F FOG
STEVENS POINT  CLOUDY    27  26  94 SE5       30.14F FOG
WAUPACA        CLOUDY    31  28  90 SE5       30.17F FOG
SHAWANO        CLOUDY    31  27  87 S3        30.18F FOG
CLINTONVILLE   CLOUDY    30  28  93 S6        30.18S FOG
$$

WIZ038-039-048-051-211000-
FOX VALLEY

CITY           SKY/WX    TMP DP  RH WIND       PRES   REMARKS
NWS GREEN BAY  CLOUDY    30  27  88 S6        30.20S FOG
APPLETON       CLOUDY    30  28  93 S6        30.18F FOG
OSHKOSH        CLOUDY    30  26  85 S8        30.18F FOG
FOND DU LAC    CLOUDY    31  26  82 S6        30.19F
$$

WIZ022-050-052-211000-
EAST CENTRAL WISCONSIN

CITY           SKY/WX    TMP DP  RH WIND       PRES   REMARKS
STURGEON BAY   CLOUDY    28  25  86 S5        30.21F
MANITOWOC      CLOUDY    31  28  89 S6        30.21F
SHEBOYGAN      CLOUDY    30  26  85 CALM      30.20F
$$

LMZ563-521-522-541>543-211000-
LAKESHORE

STATION/POSITION TIME  TEMP    WIND        PRES    VSBY  WAVE
                       AIR SEA DIR/SP/G                  HT/PER
                 (UTC) (F)     (DEG/KT/KT) (MB)    (MI)  (FT/S)
SHEBOYGAN LKSHOR 0900   31 34  200/  6/  6 1024.1F
KEWAUNEE LKSHORE 0900   31     180/  4/  6 1022.0F
ALGOMA MARINA    0900          240/  5/  6   N/A
NORTHPORT PIER   0900   30     170/  1/  3 1022.7S
CHAMBERS ISLAND  0900   29      CALM  /  2 1022.7F
MENOMINEE LKSHOR 0900   30     160/  4/  5 1023.0F
$$



USA.gov is the U.S. government's official web portal to all federal, state and local government web resources and services.